• In Germany
  • List of Countries
  • For 7 days
  • Water Temperature
  • Satellite Maps
  • Weather Map
  • Weather Widgets
  • user-avatar
    Login

    Hourly Weather Zaranj

    Today, 20 January, Saturday

    Time Temperature Precipitation Wind Pressure Humidity
    00:00 +13°C° 0 mm 2 mps 721 mmHg 20%
    01:00 +13°C° 0 mm 2 mps 721 mmHg 20%
    02:00 +12°C° 0 mm 2 mps 721 mmHg 20%
    03:00 +12°C° 0 mm 2 mps 720 mmHg 20%
    04:00 +10°C° 0 mm 2 mps 720 mmHg 21%
    05:00 +10°C° 0 mm 2 mps 720 mmHg 21%
    06:00 +10°C° 0 mm 2 mps 720 mmHg 22%
    07:00 +10°C° 0 mm 2 mps 720 mmHg 23%
    08:00 +13°C° 0 mm 2 mps 720 mmHg 21%
    09:00 +15°C° 0 mm 2 mps 720 mmHg 19%
    10:00 +17°C° 0 mm 2 mps 721 mmHg 17%
    11:00 +18°C° 0 mm 2 mps 720 mmHg 17%
    12:00 +19°C° 0 mm 2 mps 720 mmHg 16%
    13:00 +20°C° 0 mm 2 mps 719 mmHg 15%
    14:00 +21°C° 0 mm 2 mps 719 mmHg 16%
    15:00 +21°C° 0 mm 2 mps 718 mmHg 16%
    16:00 +23°C° 0 mm 2 mps 718 mmHg 17%
    17:00 +21°C° 0 mm 1 mps 718 mmHg 20%
    18:00 +19°C° 0 mm 1 mps 718 mmHg 23%
    19:00 +16°C° 0 mm 1 mps 718 mmHg 26%
    20:00 +16°C° 0 mm 1 mps 718 mmHg 26%
    21:00 +15°C° 0 mm 1 mps 717 mmHg 27%
    22:00 +15°C° 0 mm 1 mps 717 mmHg 27%
    23:00 +15°C° 0 mm 1 mps 717 mmHg 27%

    Tomorrow, 21 January, Sunday

    Time Temperature Precipitation Wind Pressure Humidity
    00:00 +14°C° 0 mm 1 mps 717 mmHg 28%
    01:00 +14°C° 0 mm 1 mps 717 mmHg 28%
    02:00 +13°C° 0 mm 1 mps 716 mmHg 29%
    03:00 +13°C° 0 mm 2 mps 716 mmHg 29%
    04:00 +13°C° 0 mm 2 mps 715 mmHg 30%
    05:00 +12°C° 0 mm 2 mps 715 mmHg 30%
    06:00 +12°C° 0 mm 2 mps 715 mmHg 31%
    07:00 +12°C° 0 mm 2 mps 716 mmHg 32%
    08:00 +14°C° 0 mm 2 mps 716 mmHg 29%
    09:00 +16°C° 0 mm 2 mps 716 mmHg 26%
    10:00 +18°C° 0 mm 2 mps 717 mmHg 23%
    11:00 +19°C° 0 mm 3 mps 716 mmHg 21%
    12:00 +20°C° 0 mm 3 mps 716 mmHg 20%
    13:00 +21°C° 0 mm 3 mps 715 mmHg 19%
    14:00 +21°C° 0 mm 4 mps 715 mmHg 19%
    15:00 +21°C° 0 mm 5 mps 715 mmHg 19%
    16:00 +21°C° 0 mm 5 mps 715 mmHg 18%
    17:00 +19°C° 0 mm 6 mps 716 mmHg 22%
    18:00 +17°C° 0 mm 7 mps 716 mmHg 25%
    19:00 +15°C° 0 mm 8 mps 717 mmHg 28%
    20:00 +13°C° 0 mm 8 mps 717 mmHg 32%
    21:00 +13°C° 0 mm 8 mps 718 mmHg 36%
    22:00 +12°C° 0 mm 8 mps 718 mmHg 40%
    23:00 +11°C° 0 mm 8 mps 718 mmHg 43%

    Day after tomorrow, 22 January, Monday

    Time Temperature Precipitation Wind Pressure Humidity
    00:00 +11°C° 0 mm 8 mps 718 mmHg 45%
    01:00 +10°C° 0 mm 8 mps 719 mmHg 48%
    02:00 +9°C° 0 mm 8 mps 719 mmHg 49%
    03:00 +9°C° 0 mm 8 mps 719 mmHg 50%
    04:00 +9°C° 0 mm 8 mps 719 mmHg 51%
    05:00 +7°C° 0 mm 8 mps 719 mmHg 52%
    06:00 +7°C° 0 mm 8 mps 720 mmHg 53%
    07:00 +7°C° 0 mm 8 mps 720 mmHg 53%
    08:00 +8°C° 0 mm 9 mps 720 mmHg 47%
    09:00 +11°C° 0 mm 10 mps 721 mmHg 40%
    10:00 +12°C° 0 mm 11 mps 721 mmHg 34%
    11:00 +13°C° 0 mm 11 mps 720 mmHg 31%
    12:00 +14°C° 0 mm 11 mps 720 mmHg 29%
    13:00 +16°C° 0 mm 10 mps 719 mmHg 26%
    14:00 +16°C° 0 mm 10 mps 719 mmHg 26%
    15:00 +16°C° 0 mm 10 mps 719 mmHg 26%
    16:00 +16°C° 0 mm 9 mps 719 mmHg 26%
    17:00 +15°C° 0 mm 8 mps 719 mmHg 28%
    18:00 +14°C° 0 mm 7 mps 720 mmHg 29%
    19:00 +13°C° 0 mm 6 mps 720 mmHg 31%
    20:00 +13°C° 0 mm 6 mps 720 mmHg 32%
    21:00 +12°C° 0 mm 5 mps 721 mmHg 33%
    22:00 +12°C° 0 mm 5 mps 721 mmHg 34%
    23:00 +11°C° 0 mm 4 mps 720 mmHg 35%

    23 January, Tuesday

    Time Temperature Precipitation Wind Pressure Humidity
    00:00 +11°C° 0 mm 4 mps 720 mmHg 36%
    01:00 +10°C° 0 mm 3 mps 720 mmHg 37%
    02:00 +10°C° 0 mm 3 mps 720 mmHg 38%
    03:00 +10°C° 0 mm 3 mps 719 mmHg 39%
    04:00 +9°C° 0 mm 2 mps 719 mmHg 40%
    05:00 +9°C° 0 mm 2 mps 719 mmHg 41%
    06:00 +8°C° 0 mm 2 mps 719 mmHg 43%
    07:00 +9°C° 0 mm 1 mps 720 mmHg 44%
    08:00 +11°C° 0 mm 1 mps 720 mmHg 39%
    09:00 +12°C° 0 mm 1 mps 720 mmHg 34%
    10:00 +14°C° 0 mm 1 mps 721 mmHg 29%
    11:00 +15°C° 0 mm 1 mps 720 mmHg 27%
    12:00 +18°C° 0 mm 1 mps 719 mmHg 24%
    13:00 +19°C° 0 mm 1 mps 719 mmHg 22%
    14:00 +18°C° 0 mm 2 mps 718 mmHg 21%
    15:00 +18°C° 0 mm 2 mps 718 mmHg 20%
    16:00 +19°C° 0 mm 2 mps 717 mmHg 19%
    17:00 +18°C° 0 mm 2 mps 718 mmHg 21%
    18:00 +16°C° 0 mm 2 mps 718 mmHg 22%
    19:00 +15°C° 0 mm 2 mps 718 mmHg 23%
    20:00 +15°C° 0 mm 2 mps 718 mmHg 24%
    21:00 +14°C° 0 mm 2 mps 718 mmHg 25%
    22:00 +13°C° 0 mm 2 mps 718 mmHg 26%
    23:00 +13°C° 0 mm 2 mps 718 mmHg 27%

    24 January, Wednesday

    Time Temperature Precipitation Wind Pressure Humidity
    00:00 +13°C° 0 mm 2 mps 717 mmHg 29%
    01:00 +12°C° 0 mm 2 mps 717 mmHg 30%
    02:00 +12°C° 0 mm 2 mps 717 mmHg 32%
    03:00 +12°C° 0 mm 2 mps 717 mmHg 35%
    04:00 +12°C° 0 mm 2 mps 717 mmHg 37%
    05:00 +10°C° 0 mm 2 mps 717 mmHg 39%
    06:00 +10°C° 0 mm 2 mps 717 mmHg 41%
    07:00 +9°C° 0 mm 2 mps 718 mmHg 43%
    08:00 +12°C° 0 mm 2 mps 718 mmHg 38%
    09:00 +14°C° 0 mm 2 mps 718 mmHg 34%
    10:00 +16°C° 0 mm 2 mps 719 mmHg 29%
    11:00 +17°C° 0 mm 2 mps 718 mmHg 27%
    12:00 +19°C° 0 mm 1 mps 718 mmHg 24%
    13:00 +20°C° 0 mm 1 mps 717 mmHg 22%
    14:00 +21°C° 0 mm 1 mps 717 mmHg 21%
    15:00 +21°C° 0 mm 1 mps 717 mmHg 20%
    16:00 +22°C° 0 mm 1 mps 717 mmHg 19%
    17:00 +20°C° 0 mm 1 mps 717 mmHg 21%
    18:00 +18°C° 0 mm 1 mps 717 mmHg 24%
    19:00 +16°C° 0 mm 1 mps 718 mmHg 27%
    20:00 +15°C° 0 mm 1 mps 718 mmHg 28%
    21:00 +15°C° 0 mm 1 mps 718 mmHg 29%
    22:00 +14°C° 0 mm 1 mps 718 mmHg 30%
    23:00 +14°C° 0 mm 1 mps 718 mmHg 31%

    25 January, Thursday

    Time Temperature Precipitation Wind Pressure Humidity
    00:00 +13°C° 0 mm 1 mps 718 mmHg 33%
    01:00 +13°C° 0 mm 1 mps 718 mmHg 34%
    02:00 +13°C° 0 mm 1 mps 718 mmHg 35%
    03:00 +12°C° 0 mm 1 mps 717 mmHg 36%
    04:00 +12°C° 0 mm 1 mps 717 mmHg 37%
    05:00 +12°C° 0 mm 1 mps 718 mmHg 38%
    06:00 +11°C° 0 mm 1 mps 718 mmHg 39%
    07:00 +11°C° 0 mm 1 mps 718 mmHg 40%
    08:00 +13°C° 0 mm 1 mps 719 mmHg 34%
    09:00 +16°C° 0 mm 1 mps 720 mmHg 29%
    10:00 +19°C° 0 mm 1 mps 720 mmHg 24%
    11:00 +20°C° 0 mm 1 mps 720 mmHg 22%
    12:00 +20°C° 0 mm 2 mps 719 mmHg 19%
    13:00 +21°C° 0 mm 2 mps 719 mmHg 17%
    14:00 +23°C° 0 mm 2 mps 719 mmHg 17%
    15:00 +23°C° 0 mm 2 mps 719 mmHg 16%
    16:00 +23°C° 0 mm 2 mps 718 mmHg 15%
    17:00 +21°C° 0 mm 2 mps 718 mmHg 17%
    18:00 +19°C° 0 mm 2 mps 719 mmHg 20%
    19:00 +18°C° 0 mm 1 mps 719 mmHg 22%
    20:00 +17°C° 0 mm 2 mps 719 mmHg 22%
    21:00 +16°C° 0 mm 2 mps 719 mmHg 23%
    22:00 +16°C° 0 mm 2 mps 719 mmHg 24%
    23:00 +16°C° 0 mm 3 mps 719 mmHg 25%
    Show more